Regional Weather Roundup
Issued by NWS

Home | Current Version | Previous Version | Text Only | Print | Product List | Glossary On
Versions: 1 2 3 4 5 6 7 8 9 10 11 12 13 14 15 16 17 18 19 20 21 22 23 24 25 26 27 28 29 30 31 32 33 34 35 36 37 38 39 40 41 42 43 44 45 46 47 48 49 50
569
ASUS45 KBOI 061010
RWRID

IDAHO REGIONAL WEATHER ROUNDUP
NATIONAL WEATHER SERVICE BOISE ID
400 AM MDT FRI MAY 06 2016

NOTE: "FAIR" INDICATES FEW OR NO CLOUDS BELOW 12000 FEET
WITH NO SIGNIFICANT WEATHER AND/OR OBSTRUCTIONS TO VISIBILITY

IDZ012-014-061100-
SOUTHWEST IDAHO


CITY           SKY/WX    TMP DP  RH WIND       PRES   REMARKS
BOISE          CLOUDY    58  48  69 NW8       29.82S
CALDWELL       CLOUDY    59  50  72 W14       29.83R
MOUNTAIN HOME  MOCLDY    59  48  65 NW14      29.82R
$$

IDZ016-017-061100-
SOUTHCENTRAL IDAHO


CITY           SKY/WX    TMP DP  RH WIND       PRES   REMARKS
BURLEY         CLOUDY    54  48  80 SE7       29.82S
JEROME         CLOUDY    55  45  68 S6        29.86S
TWIN FALLS     CLOUDY    53  42  66 SW6       29.87R
$$

IDZ019>023-061100-
SOUTHEAST IDAHO


CITY           SKY/WX    TMP DP  RH WIND       PRES   REMARKS
IDAHO FALLS    CLOUDY    56  38  50 N3        29.89R
POCATELLO      CLOUDY    60  43  53 W13       29.89R
REXBURG        CLOUDY    57  36  45 CALM      29.89F
$$

IDZ006-010-011-018-031-032-061100-
CENTRAL IDAHO MOUNTAINS


CITY           SKY/WX    TMP DP  RH WIND       PRES   REMARKS
MCCALL         CLOUDY    53  42  66 N12G20    29.93S
HAILEY         LGT RAIN  54  43  66 NW8       29.97R
STANLEY          N/A     38  34  85 E3        30.01S
SALMON         PTCLDY    48  36  61 CALM      29.90S
CHALLIS        CLOUDY    54  33  45 SE5       29.93S
$$

IDZ002-004-006-007-026-061100-
NORTHERN IDAHO


CITY           SKY/WX    TMP DP  RH WIND       PRES   REMARKS
LEWISTON       PTCLDY    58  55  90 E6        29.94S
LOWELL           N/A     55  53  93 CALM      29.97S
COEUR D`ALENE  CLOUDY   N/A N/A N/A N16       29.95F
MULLAN PASS    LGT RAIN  41  32  70 VRB5        N/A  VSB 1
$$




USA.gov is the U.S. government's official web portal to all federal, state and local government web resources and services.